Weather History for KPCZ - March, 2014

Change the Weather History Date:

Monday, March 3, 2014

  Actual Average Record
Temperature  
Mean Temperature 0 °F -  
Max Temperature 17 °F 36 °F 62 °F (1974)
Min Temperature -16 °F 18 °F -16 °F (2014)
Degree Days  
Heating Degree Days 64    
Moisture  
Dew Point -13 °F    
Average Humidity 48    
Maximum Humidity 73    
Minimum Humidity 30    
Precipitation  
Precipitation 0.00 in - - ()
Sea Level Pressure  
Sea Level Pressure 30.42 in    
Wind  
Wind Speed 3 mph (WSW)    
Max Wind Speed 9 mph    
Max Gust Speed -    
Visibility 10 miles    
Events Snow    
Averages and records for this station are not official NWS values.
T = Trace of Precipitation, MM = Missing Value Source: NWS Daily Summary

Daily Weather History Graph

Daily Weather History Graph

Search for Another Location

Airport or City:

Trip Planner

Search our weather history database for the weather conditions in past years. The results will help you decide how hot, cold, wet, or windy it might be!

Date:

Astronomy

Mar. 03, 2014 Rise Set
Actual Time 6:29 AM CST 5:46 PM CST
Civil Twilight 6:00 AM CST 6:15 PM CST
Nautical Twilight 5:27 AM CST 6:49 PM CST
Astronomical Twilight 4:53 AM CST 7:23 PM CST
Moon 7:31 AM CST (3/3) 8:58 PM CST (3/3)
Length of Visible Light 12h 15m
Length of Day
11h 17m
Waxing Crescent, 8% of the Moon is Illuminated
Mar 3
Waxing Crescent
Mar 8
First Quarter
Mar 16
Full
Mar 23
Last Quarter
Mar 30
New

Hourly Weather History & Observations

Time (CST) Temp. Windchill Dew Point Humidity Pressure Visibility Wind Dir Wind Speed Gust Speed Precip Events Conditions
12:15 AM -4.0 °F - -19.3 °F 48% 30.47 in 10.0 mi Calm Calm - N/A   Clear
12:35 AM -4.9 °F -13.4 °F -19.5 °F 50% 30.48 in 10.0 mi WNW 3.5 mph - N/A   Clear
12:55 AM -5.4 °F -18.0 °F -19.5 °F 51% 30.48 in 10.0 mi NW 5.8 mph - N/A   Clear
1:15 AM -4.7 °F -17.2 °F -19.1 °F 50% 30.48 in 10.0 mi NW 5.8 mph - N/A   Clear
1:35 AM -5.8 °F -14.5 °F -19.5 °F 52% 30.47 in 10.0 mi NW 3.5 mph - N/A   Clear
1:55 AM -6.2 °F -17.1 °F -19.3 °F 53% 30.47 in 10.0 mi NW 4.6 mph - N/A   Clear
2:15 AM -5.8 °F - -18.8 °F 54% 30.47 in 10.0 mi Calm Calm - N/A   Clear
2:35 AM -11.0 °F - -22.2 °F 58% 30.47 in 10.0 mi Calm Calm - N/A   Clear
2:55 AM -8.7 °F -17.8 °F -20.2 °F 57% 30.46 in 10.0 mi West 3.5 mph - N/A   Clear
3:15 AM -8.3 °F -17.3 °F -19.3 °F 59% 30.47 in 10.0 mi WNW 3.5 mph - N/A   Clear
3:35 AM -9.0 °F -20.4 °F -20.6 °F 57% 30.47 in 10.0 mi WNW 4.6 mph - N/A   Clear
3:55 AM -11.7 °F -23.6 °F -23.1 °F 57% 30.47 in 10.0 mi NW 4.6 mph - N/A   Clear
4:15 AM -11.2 °F -23.0 °F -21.6 °F 60% 30.47 in 10.0 mi NW 4.6 mph - N/A   Clear
4:35 AM -12.6 °F -24.6 °F -22.7 °F 61% 30.47 in 10.0 mi NNW 4.6 mph - N/A   Clear
4:55 AM -11.7 °F - -21.1 °F 63% 30.48 in 10.0 mi Calm Calm - N/A   Clear
5:15 AM -12.1 °F - -21.3 °F 64% 30.48 in 10.0 mi Calm Calm - N/A   Clear
5:35 AM -12.5 °F - -21.1 °F 65% 30.48 in 10.0 mi Calm Calm - N/A   Clear
5:55 AM -12.8 °F -22.5 °F -22.0 °F 64% 30.47 in 10.0 mi NNW 3.5 mph - N/A   Clear
6:15 AM -15.7 °F -28.2 °F -24.3 °F 65% 30.46 in 10.0 mi NNW 4.6 mph - N/A   Clear
6:35 AM -16.2 °F - -23.8 °F 69% 30.46 in 10.0 mi Calm Calm - N/A   Clear
6:55 AM -16.8 °F -27.0 °F -25.2 °F 65% 30.46 in 10.0 mi NNW 3.5 mph - N/A   Clear
7:15 AM -14.8 °F -29.1 °F -22.4 °F 69% 30.46 in 10.0 mi NNW 5.8 mph - N/A   Clear
7:35 AM -11.7 °F - -21.1 °F 63% 30.47 in 10.0 mi Calm Calm - N/A   Clear
7:55 AM -7.1 °F - -18.6 °F 57% 30.47 in 10.0 mi Calm Calm - N/A   Clear
8:15 AM -4.7 °F - -17.9 °F 53% 30.48 in 10.0 mi Calm Calm - N/A   Clear
8:35 AM -2.2 °F - -17.3 °F 49% 30.48 in 10.0 mi Calm Calm - N/A   Clear
8:55 AM 0.3 °F - -16.4 °F 45% 30.48 in 10.0 mi Calm Calm - N/A   Clear
9:15 AM 1.8 °F - -15.0 °F 46% 30.48 in 10.0 mi Calm Calm - N/A   Clear
9:35 AM 4.6 °F - -14.3 °F 41% 30.48 in 10.0 mi Calm Calm - N/A   Clear
9:55 AM 6.3 °F - -12.8 °F 41% 30.48 in 10.0 mi Calm Calm - N/A   Clear
10:15 AM 8.1 °F 1.4 °F -13.0 °F 38% 30.48 in 10.0 mi South 3.5 mph - N/A   Clear
10:35 AM 9.5 °F 1.2 °F -11.9 °F 37% 30.48 in 10.0 mi South 4.6 mph - N/A   Clear
10:55 AM 10.9 °F 4.7 °F -10.8 °F 37% 30.48 in 10.0 mi SE 3.5 mph - N/A   Clear
11:38 AM 12.2 °F 2.9 °F -9.4 °F 38% 30.46 in 10.0 mi SSE 5.8 mph - N/A   Clear
11:58 AM 14.0 °F 5.1 °F -9.4 °F 35% 30.45 in 10.0 mi SSE 5.8 mph - N/A   Clear
12:18 PM 15.8 °F 6.1 °F -9.4 °F 32% 30.44 in 10.0 mi South 6.9 mph - N/A   Clear
12:37 PM 15.8 °F 7.2 °F -9.4 °F 32% 30.43 in 10.0 mi SSE 5.8 mph - N/A   Clear
1:17 PM 15.8 °F 7.2 °F -7.6 °F 35% 30.42 in 10.0 mi South 5.8 mph - N/A   Mostly Cloudy
1:37 PM 15.8 °F 5.1 °F -9.4 °F 32% 30.41 in 10.0 mi WSW 8.1 mph - N/A   Overcast
1:57 PM 17.6 °F 6.4 °F -9.4 °F 30% 30.41 in 10.0 mi West 9.2 mph - N/A   Mostly Cloudy
2:19 PM 17.6 °F 9.3 °F -9.4 °F 30% 30.40 in 10.0 mi West 5.8 mph - N/A   Scattered Clouds
2:37 PM 17.6 °F 8.2 °F -9.4 °F 30% 30.40 in 10.0 mi SW 6.9 mph - N/A   Mostly Cloudy
4:18 PM 15.8 °F 6.1 °F -7.6 °F 35% 30.38 in 10.0 mi WSW 6.9 mph - N/A   Scattered Clouds
4:39 PM 17.6 °F 6.4 °F -7.6 °F 32% 30.38 in 10.0 mi WSW 9.2 mph - N/A   Clear
6:00 PM 15.8 °F 8.6 °F -5.8 °F 38% 30.35 in 10.0 mi WSW 4.6 mph - N/A   Scattered Clouds
6:19 PM 15.8 °F 10.2 °F -5.8 °F 38% 30.35 in 10.0 mi WSW 3.5 mph - N/A   Mostly Cloudy
6:38 PM 15.8 °F 10.2 °F -5.8 °F 38% 30.35 in 10.0 mi WSW 3.5 mph - N/A   Mostly Cloudy
6:59 PM 15.8 °F 10.2 °F -5.8 °F 38% 30.35 in 10.0 mi WSW 3.5 mph - N/A   Mostly Cloudy
7:38 PM 15.8 °F 8.6 °F -5.8 °F 38% 30.34 in 10.0 mi SW 4.6 mph - N/A   Scattered Clouds
7:58 PM 15.8 °F 10.2 °F -5.8 °F 38% 30.33 in 10.0 mi SW 3.5 mph - N/A   Mostly Cloudy
8:18 PM 15.8 °F 10.2 °F -4.0 °F 41% 30.33 in 10.0 mi SSW 3.5 mph - N/A   Overcast
8:38 PM 15.8 °F - -4.0 °F 41% 30.33 in 10.0 mi Calm Calm - N/A   Overcast
8:58 PM 15.8 °F - -5.8 °F 38% 30.32 in 10.0 mi Calm Calm - N/A   Overcast
9:21 PM 14.0 °F - -4.0 °F 45% 30.33 in 10.0 mi Calm Calm - N/A   Overcast
9:38 PM 15.8 °F - -4.0 °F 41% 30.33 in 10.0 mi Calm Calm - N/A   Overcast
9:58 PM 14.0 °F - -2.2 °F 49% 30.33 in 10.0 mi Calm Calm - N/A   Overcast
10:21 PM 15.8 °F - -4.0 °F 41% 30.31 in 10.0 mi Calm Calm - N/A   Overcast
10:38 PM 14.0 °F - -2.2 °F 49% 30.31 in 10.0 mi Calm Calm - N/A   Overcast
10:58 PM 14.0 °F - -2.2 °F 49% 30.31 in 10.0 mi Calm Calm - N/A   Overcast
11:20 PM 14.0 °F 6.5 °F 1.4 °F 57% 30.30 in 3.0 mi WSW 4.6 mph - N/A Snow Light Snow
11:40 PM 12.2 °F 6.1 °F 3.2 °F 67% 30.30 in 2.0 mi WSW 3.5 mph - N/A Snow Light Snow
11:58 PM 12.2 °F 4.3 °F 5.0 °F 73% 30.29 in 1.2 mi SSW 4.6 mph - N/A Snow Snow